Hourly Data Report for July 25, 2021

SWAN RIVER RCS
MANITOBA
Current Station Operator: ECCC - MSC

52°06'53.900" N
101°13'58.500" W
334.80 m
504K80K
71443
WEQ

Download Data

Hourly Data (July 2021)
Hourly Data Report for July 25, 2021
TIME
LST
Temp Definition
°C
Dew Point Definition
°C
Rel Hum Definition
%
Precip. Amount Definition
mm

Wind Dir Definition
10's deg

Wind Spd Definition
km/h
Visibility Definition
km
Stn Press Definition
kPa
Hmdx Definition


Wind Chill Definition


Weather Definition


00:00 14.2 9.3 72 0.0 24 4   97.10     LegendNANA
01:00 14.2 9.1 72 0.0 22 13   97.12     LegendNANA
02:00 11.2 8.8 85 0.0 17 9   97.17     LegendNANA
03:00 10.5 8.5 87 0.0 22 9   97.19     LegendNANA
04:00 10.9 8.1 83 0.0 22 9   97.20     LegendNANA
05:00 11.8 7.9 77 0.0 23 13   97.26     LegendNANA
06:00 12.1 8.2 77 0.0 23 12   97.32     LegendNANA
07:00 14.5 9.6 72 0.0 23 12   97.32     LegendNANA
08:00 18.0 11.5 66 0.0 24 12   97.36     LegendNANA
09:00 21.3 11.9 55 0.0 26 17   97.36     LegendNANA
10:00 22.9 11.2 47 0.0 26 18   97.34 25   LegendNANA
11:00 24.1 10.5 42 0.0 26 22   97.35 26   LegendNANA
12:00 26.4 11.3 39 0.0 28 19   97.34 28   LegendNANA
13:00 25.0 8.3 35 0.0 27 20   97.31 26   LegendNANA
14:00 23.7 10.1 42 0.0 25 12   97.33 25   LegendNANA
15:00 23.8 11.0 45 0.0 26 12   97.31 26   LegendNANA
16:00 25.2 8.0 33 0.0 26 18   97.29 26   LegendNANA
17:00 25.8 8.3 33 0.0 24 17   97.27 26   LegendNANA
18:00 24.9 7.2 32 0.0 29 17   97.26 25   LegendNANA
19:00 22.6 9.5 43 0.0 24 8   97.25     LegendNANA
20:00 21.6 11.8 54 0.0 24 12   97.26     LegendNANA
21:00 18.9 12.0 64 0.0 23 10   97.29     LegendNANA
22:00 16.3 12.1 76 0.0 3 7   97.35     LegendNANA
23:00 14.9 11.5 80 0.0 24 6   97.36     LegendNANA

Notes on Data Quality.

Legend

  • E = Estimated
  • M = Missing
  • NA = Not Available*
  • [empty] = Indicates an unobserved value
Date modified: